STARLINK-34327, 64208

Orbit data source: Space-Track

STARLINK-34327, 64208 is a payload satellite owned by SpaceX/Seattle (US) in LEO that was launched on Sat, 31 May 2025 UTC via an FALCON 9 launch vehicle from the Air Force Western Test Range (AFWTR). Payload-class satellites include a variety of spacecraft equipped with specific instruments for various scientific and technological missions. These include communications satellites like Starlink; space stations such as the ISS; scientific satellites like the Hubble; Earth observation satellites from companies like Planet Labs, Umbra, and HawkEye 360; GPS; miniature CubeSats for education and research; and military/defense satellites.

Loading next visibility...
Identifier
64208, 2025-117F
Orbit
LEO
Country
Flag of USUS
Related business
Manufacturer
SpaceX/Seattle
Mission
Operational Commercial Communications
Bus & Motor
STARLINK V2MO, Unknown motor
Mass
575 kg wet, ~530 kg dry
Launch date (UTC)
2025-05-31 (1 year ago)
Launch vehicle
FALCON 9
Launch site
Air Force Western Test Range (AFWTR)
Object type
Payload
Rocket body
Debris
Shape & HBR
Box + 2 Pan, 17.7 m
Radar Cross Section
36.964 m², Large (>1 m²)

Expand to show TLE details & history
Last TLE update: 9 hours ago

TLE from 9 hours ago
0 STARLINK-34327
1 64208U 25117F   26171.45710691  .00025353  00000-0  86504-3 0  9990
2 64208  53.1588 281.9967 0001321  74.0242 286.0905 15.30205962 59221
Epoch: 2026-06-20T10:58Z
TLE epoch observation values (Epoch: 2026-06-20T10:58:14.037Z)
Latitude
0.00006°
Longitude
-151.2332°
Altitude
475.846 km
Speed
7.629 km/s
True Right ascension
18h 47m 59s
True Declination
0° 00' 00"
Sunlit
Object was in full shadow at epoch
Visualization orbit readout
Latitude
Unknown
Longitude
Unknown
Altitude
Unknown
Speed
Unknown
Apparent Right ascension
Unknown
Apparent Declination
Unknown
Sunlit
N/A
Visualization observer readout
Local Sidereal Time
07:21:01
Azimuth
Unknown
Elevation
Unknown
Doppler factor
Unknown
Orbital elements
Apogee altitude
476.359 km
Perigee altitude
474.549 km
Semi-major axis
6,853.591 km
Eccentricity
0.00013
Inclination
53.1588°
RAAN
281.9967°
Arg. of periapsis
74.0242°
True anomaly
286.07595°
Mean anomaly
286.0905°
Eccentric anomaly
286.08323°
Mean motion
3.8253 °/min
Orbital period
94.11 mins
BSTAR
0.00086504
Loading maneuver chart data...
Computing Atmospheric mass density...
Loading historical data...
Loading historical data...
Loading historical data...
Loading historical data...
Loading historical data...
Loading historical data...
Loading historical data...

Documentation

Showing up to 5 results
|